Regional Weather Roundup
Issued by NWS

Home | Current Version | Previous Version | Text Only | Print | Product List | Glossary Off
Versions: 1 2 3 4 5 6 7 8 9 10 11 12 13 14 15 16 17 18 19 20 21 22 23 24 25 26 27

000
ASUS45 KTFX 112110
RWRMT
MONTANA REGIONAL WEATHER ROUNDUP
NATIONAL WEATHER SERVICE GREAT FALLS MT
200 PM MST MON DEC 11 2017

NOTE: "FAIR" INDICATES FEW OR NO CLOUDS BELOW 12000 FEET WITH NO
SIGNIFICANT WEATHER AND/OR OBSTRUCTIONS TO VISIBILITY.

MTZ001>007-043-112200-
WEST OF THE DIVIDE

CITY           SKY/WX    TMP DP  RH WIND       PRES   REMARKS
KALISPELL      CLOUDY    24  21  88 CALM      30.61F
MISSOULA       PTSUNNY   21  19  92 CALM      30.59F FOG
BUTTE          FAIR      37  11  34 CALM      30.48F
MULLAN PASS    FAIR      45   3  17 S5        30.46F
ANACONDA         N/A     36  18  48 CALM      30.49F
DEER LODGE       N/A     32  18  55 CALM      30.52F
EUREKA           N/A     25  18  74 MISG      30.64F
HAMILTON         N/A     19  16  86 CALM      30.56F
LIBBY            N/A     27  21  80 CALM      30.61F
PLAINS           N/A     29  20  69 CALM      30.58
RONAN            N/A     26  23  88 S2        30.57F
$$

MTZ008-052>055-112200-
SOUTHWEST MONTANA

CITY           SKY/WX    TMP DP  RH WIND       PRES   REMARKS
BOZEMAN        FAIR      32  21  64 S5        30.49F
DILLON         FAIR      36  14  40 SW7       30.48F WCI  30
W YELLOWSTONE  FAIR      27  12  54 CALM      30.54F
ENNIS          CLOUDY    41  19  42 S7        30.52F
THREE FORKS      N/A     25  17  71 CALM      30.43F
TWIN BRIDGES     N/A     42  10  27 S1        30.41F
$$

MTZ009-010-012-014-046-048-049-054-112200-
EAST SLOPES AND CENTRAL MONTANA

CITY           SKY/WX    TMP DP  RH WIND       PRES   REMARKS
CUT BANK       FAIR      45  20  36 SE7       30.35F
GREAT FALLS    FAIR      53  14  21 SW13      30.38F
MALMSTROM AFB  FAIR      52  18  26 W6        30.37F
HELENA         FAIR      31  21  66 N3        30.49F
BOWMANS CRNR   FAIR      44  12  27 S18       30.36
CHOTEAU          N/A     55  21  26 SE8       30.37F
FAIRFIELD      FAIR      52  16  23 S10       30.36F
POWER          FAIR      50  18  28 S6        30.36F
RAYNESFORD     FAIR      54  21  27 NW6       30.37F
ULM            FAIR      52  16  23 SW8       30.38F
$$

MTZ011-013-016-021-045-047-050-051-112200-
NORTH CENTRAL MONTANA

CITY           SKY/WX    TMP DP  RH WIND       PRES   REMARKS
HAVRE          FAIR      41  20  43 SW6       30.38F
LEWISTOWN      FAIR      46  22  38 CALM      30.39F
N BAR RANCH    FAIR      50  14  23 NW10      30.41F
CHINOOK          N/A     46  19  34 CALM      30.39F
DENTON         FAIR      45  20  37 SE7       30.35F
GEYSER         FAIR      46  20  35 E6        30.37F
GRASS RANGE    FAIR      48  20  32 E8        30.35F
STANFORD       FAIR      48  18  29 E6        30.38F
WINIFRED       FAIR      46  15  28 W3        30.38F
$$

MTZ017>020-022>027-061-062-112200-
NORTHEAST MONTANA

CITY           SKY/WX    TMP DP  RH WIND       PRES   REMARKS
GLASGOW        FAIR      42  27  55 NW12      30.39F
GLENDIVE       FAIR      38  25  59 NW16      30.37F WCI  29
JORDAN           N/A     44  24  45 N8        30.40F
SIDNEY         CLOUDY    40  30  67 NW13      30.36R
WOLF POINT     PTSUNNY   43  27  53 NW8       30.39S
MALTA          SUNNY     46  21  36 W10       30.39F
PLENTYWOOD       N/A     36  30  80 NW3       30.35R
POPLAR           N/A     43  27  52 NW14      30.37F
SCOBEY           N/A     39  24  55 W8        30.30
$$

MTZ028>42-056>058-112200-
SOUTHCENTRAL AND SOUTHEAST MONTANA

CITY           SKY/WX    TMP DP  RH WIND       PRES   REMARKS
BAKER          CLOUDY    37  27  67 NW22G28   30.36S WCI  26
BILLINGS       FAIR      48  16  27 CALM      30.42F
LIVINGSTON     FAIR      47  16  29 W14       30.43F
MILES CITY     FAIR      43  27  53 NW14      30.41S
EKALAKA          N/A     36  23  59 NW12      30.30  WCI  28
FORSYTH          N/A     45  21  39 N6        30.41F
LAUREL           N/A     46  19  34 NE3       30.42S
$$

REGIONAL REPORTS...DAKOTAS

CITY           SKY/WX    TMP DP  RH WIND       PRES   REMARKS
WILLISTON      CLOUDY    38  28  67 N9        30.34F WCI  31
MINOT          FAIR      29  20  69 NW8       30.29S WCI  21
DICKINSON      CLOUDY    35  29  78 NW20      30.30R WCI  24
BEACH          CLOUDY    37  27  65 NW18      30.37S WCI  27
CROSBY         PTSUNNY   34  27  75 NW13G21   30.33S WCI  25
TIOGA          CLOUDY    34  32  93 NW14      30.32S WCI  24
BISMARCK       FAIR      35  24  64 N15       30.29R WCI  25
GRAND FORKS    FAIR      16   9  74 N22       30.27R WCI  -2
FARGO          FAIR      18  12  77 N28G38    30.24R WCI  -1
BUFFALO SD       N/A     39  26  59 NW31G38   30.25S WCI  27
RAPID CITY     FAIR      44  21  40 NW31G44   30.31R
$$

REGIONAL REPORTS...WYOMING/IDAHO/WASHINGTON

CITY           SKY/WX    TMP DP  RH WIND       PRES   REMARKS
GILLETTE       FAIR      45  15  30 N17       30.38R
SHERIDAN       FAIR      49  17  28 N13       30.40F
BUFFALO WY     FAIR      48  13  24 N21       30.38F
CODY           FAIR      49  11  21 E3        30.44S
YELLOWSTONE LA   N/A     28  20  71 VRB3      30.55F
IDAHO FALLS    FAIR      31  23  72 CALM      30.57F
SALMON         CLOUDY    19  14  81 CALM      30.70F
BOISE          CLOUDY    25  20  81 NW7       30.65F WCI  17
SPOKANE        PTSUNNY   28  24  85 CALM      30.56F
$$

REGIONAL REPORTS...ALBERTA

CITY           SKY/WX    TMP DP  RH WIND       PRES   REMARKS
CALGARY        PTSUNNY   50  16  25 SW10      30.30F
LETHBRIDGE     MOSUNNY   48  25  40 SW3       30.31F
MEDICINE HAT   PTSUNNY   41  23  48 SW5       30.35F
$$

REGIONAL REPORTS...SASKATCHEWAN

CITY           SKY/WX    TMP DP  RH WIND       PRES   REMARKS
SWIFT CURRENT  SUNNY     37  25  60 W14       30.32F WCI  29
REGINA         PTSUNNY   34  30  86 W5        30.30F
SASKATOON      MOSUNNY   36  28  75 SW8       30.28F WCI  29
$$




USA.gov is the U.S. government's official web portal to all federal, state and local government web resources and services.